Project,Study,Ord_Occ,Event_Num,Cast_ID,Date_Time_UTC,Date_Time_PST,Lat_Dec,Lon_Dec,Sta_ID,Line,Sta,Depth,Pressure,PrQ,Temp1,Temp1Q,Temp2,Temp2Q,TempAve,Salt1,Salt1Q,Salt1_Corr,Salt2,Salt2Q,Salt2_Corr,SaltAve_Corr,Ox1,Ox1Q,Ox1_CruiseCorr,Ox1_StaCorr,Ox2,Ox2Q,Ox2_CruiseCorr,Ox2_StaCorr,OxAve_StaCorr,Ox1uM,Ox1uM_CruiseCorr,Ox1uM_StaCorr,Ox2uM,Ox2uM_CruiseCorr,Ox2uM_StaCorr,OxAveuM_StaCorr,FluorV,FluorQ,EstChl_CruiseCorr,EstChl_StaCorr,ISUSV,ISUSQ,EstNO3_CruiseCorr,EstNO3_StaCorr,SigThetaTS1,SigThetaTS1Q,SigThetaTS2,SigThetaTS2Q,BAT,XMiss,TransQ,pH,pHQ,SPAR,SPARQ,PAR,PARQ,PoT1,PoT2,DynHt,SVA,OxSat1,OxSat2,BTL_Depth,BTL_Temp,SaltB,OxB,OxBuM,Chl-a,Phaeo,NO3,NO2,NH4,PO4,SIL
CalCOFI,2007SR,046,48,2007_046u,21-Jul-2020 20:32:52,21-Jul-2020 12:32:52,31.32336,-123.74396,086.7 110.0,086.7,110.0,516.000,520.245,,5.7429,,5.7425,,5.7427,34.2680,,34.2682,34.2696,,34.2712,34.2697,0.3234,,0.3202,0.3872,,,,,,14.063,14.1923,21.3083,,,,,0.0320,,,,,,,,27.0118,,27.0132,,0.6385,85.2461,,7.519,,2.0049E+03,,2.5449E-02,,5.6986,5.6982,0.9874,,4.630,,516,5.743,34.2692,0.365,15.93,,,40.50,0.00,0.00,3.18,81.88
CalCOFI,2007SR,046,48,2007_046u,21-Jul-2020 20:33:12,21-Jul-2020 12:33:12,31.32334,-123.74396,086.7 110.0,086.7,110.0,515.000,519.235,,5.7441,,5.7441,,5.7441,34.2678,,34.2680,34.2694,,34.2710,34.2695,0.3233,,0.3201,0.3871,,,,,,14.057,14.1860,21.3027,,,,,0.0332,,,,,,,,27.0115,,27.0127,,0.6381,85.2558,,7.521,,1.9967E+03,,3.1242E-02,,5.6999,5.6999,0.9881,,4.628,,,,,,,,,,,,,
CalCOFI,2007SR,046,48,2007_046u,21-Jul-2020 20:33:29,21-Jul-2020 12:33:29,31.32334,-123.74396,086.7 110.0,086.7,110.0,514.000,518.226,,5.7439,,5.7435,,5.7437,34.2676,,34.2678,34.2693,,34.2709,34.2694,0.3223,,0.3191,0.3861,,,,,,14.015,14.1422,21.2638,,,,,0.0329,,,,,,,,27.0114,,27.0128,,0.6366,85.2862,,7.524,,2.0160E+03,,2.0429E-02,,5.6998,5.6994,0.9887,,4.615,,,,,,,,,,,,,
CalCOFI,2007SR,046,48,2007_046u,21-Jul-2020 20:33:30,21-Jul-2020 12:33:30,31.32334,-123.74396,086.7 110.0,086.7,110.0,513.000,517.216,,5.7453,,5.7453,,5.7453,34.2672,,34.2674,34.2687,,34.2703,34.2689,0.3245,,0.3214,0.3884,,,,,,14.111,14.2424,21.3527,,,,,0.0328,,,,,,,,27.0108,,27.0120,,0.6377,85.2634,,7.524,,2.0180E+03,,1.5961E-02,,5.7012,5.7013,0.9887,,4.646,,,,,,,,,,,,,
CalCOFI,2007SR,046,48,2007_046u,21-Jul-2020 20:33:31,21-Jul-2020 12:33:31,31.32334,-123.74396,086.7 110.0,086.7,110.0,512.000,516.207,,5.7458,,5.7459,,5.7459,34.2669,,34.2671,34.2683,,34.2699,34.2685,0.3293,,0.3264,0.3933,,,,,,14.319,14.4595,21.5453,,,,,0.0318,,,,,,,,27.0105,,27.0116,,0.6413,85.1872,,7.524,,2.0199E+03,,1.9184E-02,,5.7018,5.7019,0.9887,,4.715,,,,,,,,,,,,,
CalCOFI,2007SR,046,48,2007_046u,21-Jul-2020 20:33:32,21-Jul-2020 12:33:32,31.32334,-123.74396,086.7 110.0,086.7,110.0,511.000,515.197,,5.7463,,5.7464,,5.7464,34.2665,,34.2667,34.2678,,34.2694,34.2681,0.3281,,0.3251,0.3921,,,,,,14.269,14.4073,21.4990,,,,,0.0329,,,,,,,,27.0101,,27.0112,,0.6374,85.2693,,7.524,,2.0208E+03,,1.5608E-02,,5.7024,5.7025,0.9887,,4.699,,,,,,,,,,,,,
CalCOFI,2007SR,046,48,2007_046u,21-Jul-2020 20:33:33,21-Jul-2020 12:33:33,31.32334,-123.74396,086.7 110.0,086.7,110.0,510.000,514.188,,5.7462,,5.7462,,5.7462,34.2660,,34.2662,34.2674,,34.2690,34.2676,0.3262,,0.3231,0.3901,,,,,,14.186,14.3207,21.4222,,,,,0.0332,,,,,,,,27.0098,,27.0109,,0.6365,85.2883,,7.524,,2.0223E+03,,2.0279E-02,,5.7025,5.7025,0.9887,,4.671,,,,,,,,,,,,,
CalCOFI,2007SR,046,48,2007_046u,21-Jul-2020 20:33:35,21-Jul-2020 12:33:35,31.32334,-123.74396,086.7 110.0,086.7,110.0,509.000,513.178,,5.7457,,5.7456,,5.7457,34.2653,,34.2655,34.2663,,34.2679,34.2667,0.3340,,0.3313,0.3982,2.0739,,1.0098,0.6301,0.5142,14.526,14.6756,21.7370,90.186,,32.7839,27.2605,0.0327,,,,,,,,27.0093,,27.0101,,0.6370,85.2781,,7.524,,2.0205E+03,,2.2350E-02,,5.7020,5.7019,0.9887,,4.783,29.696,,,,,,,,,,,,
CalCOFI,2007SR,046,48,2007_046u,21-Jul-2020 20:33:36,21-Jul-2020 12:33:36,31.32334,-123.74396,086.7 110.0,086.7,110.0,508.000,512.169,,5.7459,,5.7460,,5.7460,34.2643,,34.2645,34.2656,,34.2672,34.2659,0.3304,,0.3275,0.3945,2.0648,,0.9881,0.6059,0.5002,14.369,14.5117,21.5916,89.791,,31.8596,26.7256,0.0313,,,,,,,,27.0084,,27.0095,,0.6374,85.2705,,7.524,,2.0178E+03,,1.6417E-02,,5.7023,5.7024,0.9887,,4.731,29.566,,,,,,,,,,,,
CalCOFI,2007SR,046,48,2007_046u,21-Jul-2020 20:33:37,21-Jul-2020 12:33:37,31.32334,-123.74396,086.7 110.0,086.7,110.0,507.000,511.159,,5.7503,,5.7518,,5.7511,34.2644,,34.2646,34.2657,,34.2673,34.2660,0.3315,,0.3287,0.3956,2.0711,,1.0031,0.6227,0.5092,14.413,14.5576,21.6324,90.064,,32.4984,27.0654,0.0324,,,,,,,,27.0079,,27.0088,,0.6370,85.2790,,7.524,,2.0141E+03,,2.1193E-02,,5.7068,5.7083,0.9887,,4.746,29.659,,,,,,,,,,,,
CalCOFI,2007SR,046,48,2007_046u,21-Jul-2020 20:33:37,21-Jul-2020 12:33:37,31.32334,-123.74396,086.7 110.0,086.7,110.0,506.000,510.150,,5.7714,,5.7735,,5.7725,34.2639,,34.2641,34.2653,,34.2669,34.2655,0.3381,,0.3356,0.4025,2.0701,,1.0007,0.6200,0.5113,14.702,14.8593,21.9000,90.019,,32.3931,27.1466,0.0326,,,,,,,,27.0049,,27.0058,,0.6370,85.2789,,7.524,,2.0136E+03,,1.5612E-02,,5.7279,5.7300,0.9887,,4.844,29.660,,,,,,,,,,,,
CalCOFI,2007SR,046,48,2007_046u,21-Jul-2020 20:33:38,21-Jul-2020 12:33:38,31.32334,-123.74396,086.7 110.0,086.7,110.0,505.000,509.141,,5.7810,,5.7820,,5.7815,34.2629,,34.2631,34.2642,,34.2658,34.2645,0.3367,,0.3341,0.4010,2.0694,,0.9991,0.6182,0.5096,14.641,14.7956,21.8435,89.988,,32.3206,27.0821,0.0329,,,,,,,,27.0030,,27.0039,,0.6375,85.2678,,7.524,,2.0167E+03,,1.6212E-02,,5.7375,5.7385,0.9887,,4.825,29.655,,,,,,,,,,,,
CalCOFI,2007SR,046,48,2007_046u,21-Jul-2020 20:33:39,21-Jul-2020 12:33:39,31.32334,-123.74396,086.7 110.0,086.7,110.0,504.000,508.131,,5.7845,,5.7849,,5.7847,34.2624,,34.2626,34.2637,,34.2653,34.2640,0.3328,,0.3300,0.3970,2.0651,,0.9888,0.6067,0.5019,14.472,14.6192,21.6870,89.801,,31.8830,26.7850,0.0325,,,,,,,,27.0022,,27.0031,,0.6375,85.2677,,7.524,,2.0212E+03,,1.9083E-02,,5.7411,5.7415,0.9887,,4.769,29.596,,,,,,,,,,,,
CalCOFI,2007SR,046,48,2007_046u,21-Jul-2020 20:33:40,21-Jul-2020 12:33:40,31.32334,-123.74396,086.7 110.0,086.7,110.0,503.000,507.122,,5.7869,,5.7872,,5.7871,34.2621,,34.2623,34.2635,,34.2651,34.2637,0.3333,,0.3306,0.3975,2.0599,,0.9764,0.5928,0.4952,14.494,14.6422,21.7074,89.577,,31.3588,26.5331,0.0331,,,,,,,,27.0016,,27.0026,,0.6375,85.2677,,7.524,,2.0291E+03,,9.2141E-03,,5.7436,5.7439,0.9887,,4.777,29.523,,,,,,,,,,,,
CalCOFI,2007SR,046,48,2007_046u,21-Jul-2020 20:33:42,21-Jul-2020 12:33:42,31.32334,-123.74396,086.7 110.0,086.7,110.0,502.000,506.112,,5.7864,,5.7904,,5.7884,34.2620,,34.2622,34.2632,,34.2648,34.2635,0.3387,,0.3362,0.4031,2.0592,,0.9747,0.5910,0.4971,14.730,14.8885,21.9259,89.546,,31.2862,26.6061,0.0319,,,,,,,,27.0016,,27.0021,,0.6374,85.2704,,7.524,,2.0371E+03,,6.9237E-03,,5.7432,5.7472,0.9887,,4.854,29.515,,,,,,,,,,,,
CalCOFI,2007SR,046,48,2007_046u,21-Jul-2020 20:33:43,21-Jul-2020 12:33:43,31.32335,-123.74396,086.7 110.0,086.7,110.0,501.000,505.103,,5.7939,,5.7968,,5.7954,34.2613,,34.2615,34.2622,,34.2638,34.2627,0.3396,,0.3371,0.4040,2.0510,,0.9552,0.5691,0.4866,14.766,14.9261,21.9592,89.187,,30.4462,26.2027,0.0327,,,,,,,,27.0001,,27.0005,,0.6375,85.2667,,7.524,,2.0396E+03,,8.2129E-03,,5.7508,5.7537,0.9887,,4.867,29.401,,,,,,,,,,,,
CalCOFI,2007SR,046,48,2007_046u,21-Jul-2020 20:33:44,21-Jul-2020 12:33:44,31.32336,-123.74396,086.7 110.0,086.7,110.0,500.000,504.093,,5.8010,,5.8015,,5.8013,34.2597,,34.2599,34.2609,,34.2625,34.2612,0.3467,,0.3446,0.4114,2.0569,,0.9692,0.5848,0.4981,15.076,15.2497,22.2463,89.444,,31.0476,26.6470,0.0330,,,,,,,,26.9979,,26.9988,,0.6373,85.2723,,7.524,,2.0433E+03,,6.5032E-03,,5.7579,5.7584,0.9887,,4.970,29.489,,,,,,,,,,,,
CalCOFI,2007SR,046,48,2007_046u,21-Jul-2020 20:33:45,21-Jul-2020 12:33:45,31.32336,-123.74396,086.7 110.0,086.7,110.0,499.000,503.084,,5.8011,,5.8014,,5.8013,34.2582,,34.2584,34.2595,,34.2611,34.2598,0.3494,,0.3474,0.4142,2.0543,,0.9630,0.5779,0.4961,15.193,15.3719,22.3546,89.333,,30.7878,26.5712,0.0319,,,,,,,,26.9967,,26.9977,,0.6374,85.2705,,7.524,,2.0513E+03,,5.5637E-03,,5.7581,5.7584,0.9887,,5.009,29.452,,,,,,,,,,,,
CalCOFI,2007SR,046,48,2007_046u,21-Jul-2020 20:33:46,21-Jul-2020 12:33:46,31.32336,-123.74396,086.7 110.0,086.7,110.0,498.000,502.075,,5.8001,,5.8002,,5.8002,34.2570,,34.2572,34.2582,,34.2598,34.2585,0.3549,,0.3531,0.4199,2.0466,,0.9446,0.5574,0.4887,15.431,15.6203,22.5750,88.999,,30.0062,26.2906,0.0335,,,,,,,,26.9959,,26.9968,,0.6375,85.2677,,7.524,,2.0595E+03,,1.8421E-03,,5.7572,5.7573,0.9887,,5.087,29.340,,,,,,,,,,,,
CalCOFI,2007SR,046,48,2007_046u,21-Jul-2020 20:33:46,21-Jul-2020 12:33:46,31.32335,-123.74396,086.7 110.0,086.7,110.0,497.000,501.065,,5.8043,,5.8060,,5.8052,34.2563,,34.2565,34.2577,,34.2593,34.2579,0.3542,,0.3524,0.4192,2.0429,,0.9358,0.5475,0.4834,15.403,15.5911,22.5491,88.839,,29.6318,26.0905,0.0330,,,,,,,,26.9948,,26.9957,,0.6375,85.2677,,7.524,,2.0619E+03,,6.3844E-03,,5.7615,5.7632,0.9887,,5.078,29.291,,,,,,,,,,,,
CalCOFI,2007SR,046,48,2007_046u,21-Jul-2020 20:33:47,21-Jul-2020 12:33:47,31.32334,-123.74396,086.7 110.0,086.7,110.0,496.000,500.056,,5.8160,,5.8174,,5.8167,34.2556,,34.2558,34.2569,,34.2585,34.2572,0.3502,,0.3482,0.4150,2.0492,,0.9509,0.5643,0.4897,15.228,15.4084,22.3870,89.112,,30.2706,26.3288,0.0330,,,,,,,,26.9928,,26.9936,,0.6375,85.2677,,7.524,,2.0604E+03,,7.9058E-03,,5.7732,5.7746,0.9887,,5.022,29.389,,,,,,,,,,,,
CalCOFI,2007SR,046,48,2007_046u,21-Jul-2020 20:33:48,21-Jul-2020 12:33:48,31.32334,-123.74396,086.7 110.0,086.7,110.0,495.000,499.046,,5.8254,,5.8266,,5.8260,34.2556,,34.2558,34.2570,,34.2586,34.2572,0.3508,,0.3489,0.4156,2.0484,,0.9489,0.5622,0.4889,15.256,15.4376,22.4130,89.077,,30.1887,26.3009,0.0327,,,,,,,,26.9916,,26.9926,,0.6375,85.2677,,7.524,,2.0569E+03,,1.0407E-03,,5.7826,5.7839,0.9887,,5.032,29.384,,,,,,,,,,,,
CalCOFI,2007SR,046,48,2007_046u,21-Jul-2020 20:33:49,21-Jul-2020 12:33:49,31.32334,-123.74397,086.7 110.0,086.7,110.0,494.000,498.037,,5.8404,,5.8426,,5.8415,34.2565,,34.2567,34.2581,,34.2597,34.2582,0.3537,,0.3519,0.4187,2.0471,,0.9458,0.5587,0.4887,15.381,15.5681,22.5287,89.021,,30.0577,26.2932,0.0330,,,,,,,,26.9905,,26.9914,,0.6374,85.2703,,7.524,,2.0523E+03,,2.0725E-03,,5.7977,5.7999,0.9887,,5.075,29.377,,,,,,,,,,,,
CalCOFI,2007SR,046,48,2007_046u,21-Jul-2020 20:33:50,21-Jul-2020 12:33:50,31.32335,-123.74396,086.7 110.0,086.7,110.0,493.000,497.028,,5.8318,,5.8387,,5.8353,34.2563,,34.2565,34.2576,,34.2592,34.2579,0.3507,,0.3487,0.4155,2.0475,,0.9468,0.5598,0.4877,15.250,15.4314,22.4074,89.040,,30.1022,26.2548,0.0327,,,,,,,,26.9913,,26.9916,,0.6376,85.2646,,7.524,,2.0499E+03,,2.2777E-03,,5.7892,5.7961,0.9887,,5.031,29.380,,,,,,,,,,,,
CalCOFI,2007SR,046,48,2007_046u,21-Jul-2020 20:33:53,21-Jul-2020 12:33:53,31.32336,-123.74396,086.7 110.0,086.7,110.0,492.000,496.018,,5.8413,,5.8475,,5.8444,34.2575,,34.2577,34.2579,,34.2595,34.2586,0.3551,,0.3533,0.4201,2.0439,,0.9382,0.5502,0.4852,15.441,15.6308,22.5843,88.880,,29.7277,26.1560,0.0326,,,,,,,,26.9912,,26.9907,,0.6377,85.2632,,7.524,,2.0488E+03,,2.3125E-03,,5.7988,5.8050,0.9887,,5.095,29.333,,,,,,,,,,,,
CalCOFI,2007SR,046,48,2007_046u,21-Jul-2020 20:33:54,21-Jul-2020 12:33:54,31.32336,-123.74396,086.7 110.0,086.7,110.0,491.000,495.009,,5.8583,,5.8594,,5.8589,34.2561,,34.2563,34.2574,,34.2590,34.2577,0.3580,,0.3564,0.4231,2.0348,,0.9165,0.5260,0.4746,15.569,15.7644,22.7028,88.485,,28.8034,25.7531,0.0326,,,,,,,,26.9879,,26.9888,,0.6370,85.2790,,7.524,,2.0422E+03,,6.5439E-04,,5.8158,5.8169,0.9887,,5.139,29.211,,,,,,,,,,,,
CalCOFI,2007SR,046,48,2007_046u,21-Jul-2020 20:33:55,21-Jul-2020 12:33:55,31.32336,-123.74396,086.7 110.0,086.7,110.0,490.000,494.000,,5.8616,,5.8618,,5.8617,34.2547,,34.2549,34.2560,,34.2576,34.2563,0.3628,,0.3614,0.4281,2.0386,,0.9255,0.5361,0.4821,15.778,15.9826,22.8963,88.653,,29.1965,26.0464,0.0325,,,,,,,,26.9864,,26.9874,,0.6373,85.2713,,7.524,,2.0382E+03,,-1.395E-05,,5.8192,5.8194,0.9887,,5.209,29.268,,,,,,,,,,,,
CalCOFI,2007SR,046,48,2007_046u,21-Jul-2020 20:33:55,21-Jul-2020 12:33:55,31.32336,-123.74396,086.7 110.0,086.7,110.0,489.000,492.990,,5.8626,,5.8629,,5.8628,34.2543,,34.2545,34.2557,,34.2573,34.2559,0.3652,,0.3639,0.4306,2.0390,,0.9265,0.5372,0.4839,15.880,16.0890,22.9908,88.669,,29.2340,26.1124,0.0324,,,,,,,,26.9860,,26.9870,,0.6374,85.2705,,7.524,,2.0368E+03,,5.8880E-04,,5.8203,5.8205,0.9887,,5.243,29.274,,,,,,,,,,,,
CalCOFI,2007SR,046,48,2007_046u,21-Jul-2020 20:33:56,21-Jul-2020 12:33:56,31.32336,-123.74396,086.7 110.0,086.7,110.0,488.000,491.981,,5.8693,,5.8701,,5.8697,34.2542,,34.2544,34.2554,,34.2570,34.2557,0.3658,,0.3645,0.4312,2.0337,,0.9139,0.5230,0.4771,15.909,16.1193,23.0176,88.438,,28.6934,25.8555,0.0330,,,,,,,,26.9850,,26.9859,,0.6375,85.2677,,7.524,,2.0357E+03,,1.2603E-03,,5.8270,5.8278,0.9887,,5.253,29.202,,,,,,,,,,,,
CalCOFI,2007SR,046,48,2007_046u,21-Jul-2020 20:33:57,21-Jul-2020 12:33:57,31.32336,-123.74398,086.7 110.0,086.7,110.0,487.000,490.972,,5.8784,,5.8791,,5.8788,34.2518,,34.2520,34.2531,,34.2547,34.2534,0.3696,,0.3685,0.4351,2.0335,,0.9134,0.5225,0.4788,16.072,16.2895,23.1686,88.430,,28.6747,25.9217,0.0325,,,,,,,,26.9820,,26.9829,,0.6375,85.2677,,7.524,,2.0357E+03,,1.5794E-05,,5.8362,5.8369,0.9887,,5.308,29.205,,,,,,,,,,,,
CalCOFI,2007SR,046,48,2007_046u,21-Jul-2020 20:33:57,21-Jul-2020 12:33:57,31.32336,-123.74398,086.7 110.0,086.7,110.0,486.000,489.962,,5.8857,,5.8866,,5.8862,34.2515,,34.2517,34.2527,,34.2543,34.2530,0.3720,,0.3710,0.4376,2.0350,,0.9170,0.5265,0.4821,16.175,16.3970,23.2639,88.496,,28.8291,26.0465,0.0320,,,,,,,,26.9808,,26.9816,,0.6373,85.2714,,7.524,,2.0357E+03,,1.0000E-12,,5.8436,5.8444,0.9887,,5.343,29.232,,,,,,,,,,,,
CalCOFI,2007SR,046,48,2007_046u,21-Jul-2020 20:33:58,21-Jul-2020 12:33:58,31.32336,-123.74398,086.7 110.0,086.7,110.0,485.000,488.953,,5.8943,,5.8949,,5.8946,34.2491,,34.2493,34.2500,,34.2516,34.2505,0.3754,,0.3746,0.4412,2.0343,,0.9153,0.5246,0.4829,16.327,16.5557,23.4047,88.466,,28.7589,26.0818,0.0322,,,,,,,,26.9778,,26.9785,,0.6378,85.2623,,7.524,,2.0357E+03,,1.0000E-12,,5.8522,5.8528,0.9887,,5.394,29.227,,,,,,,,,,,,
CalCOFI,2007SR,046,48,2007_046u,21-Jul-2020 20:33:59,21-Jul-2020 12:33:59,31.32336,-123.74398,086.7 110.0,086.7,110.0,484.000,487.943,,5.9047,,5.9047,,5.9047,34.2475,,34.2477,34.2490,,34.2506,34.2492,0.3784,,0.3777,0.4443,2.0298,,0.9045,0.5126,0.4785,16.454,16.6882,23.5223,88.271,,28.3026,25.9125,0.0324,,,,,,,,26.9752,,26.9764,,0.6375,85.2675,,7.524,,2.0367E+03,,5.7547E-04,,5.8627,5.8627,0.9887,,5.437,29.169,,,,,,,,,,,,
CalCOFI,2007SR,046,48,2007_046u,21-Jul-2020 20:34:01,21-Jul-2020 12:34:01,31.32336,-123.74396,086.7 110.0,086.7,110.0,483.000,486.934,,5.9217,,5.9221,,5.9219,34.2476,,34.2478,34.2495,,34.2511,34.2495,0.3729,,0.3719,0.4386,2.0287,,0.9019,0.5097,0.4742,16.215,16.4387,23.3010,88.220,,28.1833,25.7422,0.0328,,,,,,,,26.9732,,26.9747,,0.6374,85.2690,,7.524,,2.0391E+03,,-1.020E-05,,5.8797,5.8801,0.9887,,5.360,29.165,,,,,,,,,,,,
CalCOFI,2007SR,046,48,2007_046u,21-Jul-2020 20:34:02,21-Jul-2020 12:34:02,31.32336,-123.74396,086.7 110.0,086.7,110.0,482.000,485.925,,5.9336,,5.9388,,5.9362,34.2484,,34.2486,34.2496,,34.2512,34.2499,0.3798,,0.3792,0.4457,2.0287,,0.9019,0.5097,0.4777,16.515,16.7519,23.5788,88.223,,28.1903,25.8846,0.0329,,,,,,,,26.9723,,26.9727,,0.6375,85.2677,,7.524,,2.0414E+03,,1.0000E-12,,5.8916,5.8968,0.9887,,5.461,29.177,,,,,,,,,,,,
CalCOFI,2007SR,046,48,2007_046u,21-Jul-2020 20:34:03,21-Jul-2020 12:34:03,31.32336,-123.74396,086.7 110.0,086.7,110.0,481.000,484.916,,5.9511,,5.9529,,5.9520,34.2478,,34.2480,34.2490,,34.2506,34.2493,0.3774,,0.3766,0.4432,2.0251,,0.8933,0.5001,0.4717,16.410,16.6423,23.4815,88.067,,27.8252,25.6534,0.0330,,,,,,,,26.9697,,26.9704,,0.6375,85.2677,,7.524,,2.0414E+03,,1.0000E-12,,5.9091,5.9110,0.9887,,5.429,29.135,,,,,,,,,,,,
CalCOFI,2007SR,046,48,2007_046u,21-Jul-2020 20:34:04,21-Jul-2020 12:34:04,31.32336,-123.74396,086.7 110.0,086.7,110.0,480.000,483.906,,5.9594,,5.9604,,5.9599,34.2469,,34.2471,34.2481,,34.2497,34.2484,0.3828,,0.3823,0.4488,2.0225,,0.8871,0.4932,0.4710,16.648,16.8907,23.7019,87.951,,27.5538,25.6279,0.0326,,,,,,,,26.9679,,26.9687,,0.6375,85.2677,,7.525,,2.0399E+03,,1.0000E-12,,5.9176,5.9185,0.9887,,5.508,29.101,,,,,,,,,,,,
CalCOFI,2007SR,046,48,2007_046u,21-Jul-2020 20:34:05,21-Jul-2020 12:34:05,31.32336,-123.74397,086.7 110.0,086.7,110.0,479.000,482.897,,5.9650,,5.9656,,5.9653,34.2456,,34.2458,34.2468,,34.2484,34.2471,0.3836,,0.3831,0.4497,2.0253,,0.8938,0.5007,0.4752,16.682,16.9262,23.7334,88.076,,27.8463,25.7899,0.0334,,,,,,,,26.9662,,26.9671,,0.6375,85.2677,,7.525,,2.0381E+03,,1.0000E-12,,5.9232,5.9238,0.9887,,5.520,29.146,,,,,,,,,,,,
CalCOFI,2007SR,046,48,2007_046u,21-Jul-2020 20:34:06,21-Jul-2020 12:34:06,31.32336,-123.74398,086.7 110.0,086.7,110.0,478.000,481.888,,5.9649,,5.9651,,5.9650,34.2441,,34.2443,34.2452,,34.2468,34.2456,0.3869,,0.3866,0.4531,2.0204,,0.8821,0.4876,0.4704,16.826,17.0766,23.8667,87.863,,27.3479,25.6073,0.0327,,,,,,,,26.9650,,26.9659,,0.6375,85.2677,,7.526,,2.0355E+03,,1.0000E-12,,5.9231,5.9234,0.9887,,5.568,29.075,,,,,,,,,,,,
CalCOFI,2007SR,046,48,2007_046u,21-Jul-2020 20:34:07,21-Jul-2020 12:34:07,31.32336,-123.74398,086.7 110.0,086.7,110.0,477.000,480.878,,5.9663,,5.9666,,5.9665,34.2439,,34.2441,34.2452,,34.2468,34.2455,0.3833,,0.3828,0.4494,2.0213,,0.8842,0.4900,0.4697,16.669,16.9127,23.7214,87.900,,27.4344,25.5779,0.0330,,,,,,,,26.9646,,26.9656,,0.6375,85.2677,,7.525,,2.0339E+03,,6.2152E-04,,5.9247,5.9250,0.9887,,5.516,29.088,,,,,,,,,,,,
CalCOFI,2007SR,046,48,2007_046u,21-Jul-2020 20:34:08,21-Jul-2020 12:34:08,31.32336,-123.74398,086.7 110.0,086.7,110.0,476.000,479.869,,5.9698,,5.9706,,5.9702,34.2440,,34.2442,34.2453,,34.2469,34.2456,0.3877,,0.3874,0.4539,2.0192,,0.8792,0.4844,0.4692,16.862,17.1141,23.9001,87.808,,27.2191,25.5596,0.0323,,,,,,,,26.9643,,26.9652,,0.6375,85.2677,,7.527,,2.0364E+03,,5.9075E-04,,5.9283,5.9290,0.9887,,5.580,29.060,,,,,,,,,,,,
CalCOFI,2007SR,046,48,2007_046u,21-Jul-2020 20:34:09,21-Jul-2020 12:34:09,31.32336,-123.74398,086.7 110.0,086.7,110.0,475.000,478.860,,5.9715,,5.9719,,5.9717,34.2433,,34.2435,34.2445,,34.2461,34.2448,0.3917,,0.3916,0.4581,2.0207,,0.8828,0.4884,0.4733,17.033,17.2926,24.0584,87.873,,27.3713,25.7149,0.0327,,,,,,,,26.9636,,26.9644,,0.6377,85.2627,,7.528,,2.0421E+03,,2.9711E-06,,5.9300,5.9304,0.9887,,5.637,29.082,,,,,,,,,,,,
CalCOFI,2007SR,046,48,2007_046u,21-Jul-2020 20:34:10,21-Jul-2020 12:34:10,31.32336,-123.74398,086.7 110.0,086.7,110.0,474.000,477.850,,5.9687,,5.9686,,5.9687,34.2420,,34.2422,34.2430,,34.2446,34.2434,0.4036,,0.4040,0.4704,2.0206,,0.8826,0.4881,0.4793,17.553,17.8355,24.5399,87.871,,27.3666,25.9533,0.0328,,,,,,,,26.9628,,26.9636,,0.6375,85.2676,,7.528,,2.0488E+03,,1.3458E-04,,5.9273,5.9273,0.9887,,5.809,29.079,,,,,,,,,,,,
CalCOFI,2007SR,046,48,2007_046u,21-Jul-2020 20:34:11,21-Jul-2020 12:34:11,31.32336,-123.74398,086.7 110.0,086.7,110.0,473.000,476.841,,5.9652,,5.9652,,5.9652,34.2375,,34.2377,34.2387,,34.2403,34.2390,0.4111,,0.4119,0.4782,2.0206,,0.8826,0.4881,0.4832,17.876,18.1727,24.8390,87.870,,27.3642,26.1016,0.0326,,,,,,,,26.9597,,26.9606,,0.6375,85.2677,,7.529,,2.0560E+03,,-7.424E-07,,5.9240,5.9240,0.9887,,5.915,29.076,,,,,,,,,,,,
CalCOFI,2007SR,046,48,2007_046u,21-Jul-2020 20:34:12,21-Jul-2020 12:34:12,31.32336,-123.74396,086.7 110.0,086.7,110.0,472.000,475.832,,5.9632,,5.9632,,5.9632,34.2340,,34.2342,34.2349,,34.2365,34.2354,0.4135,,0.4144,0.4807,2.0205,,0.8823,0.4879,0.4843,17.982,18.2833,24.9372,87.866,,27.3549,26.1461,0.0322,,,,,,,,26.9571,,26.9579,,0.6375,85.2677,,7.529,,2.0599E+03,,1.6798E-07,,5.9221,5.9221,0.9887,,5.950,29.072,,,,,,,,,,,,
CalCOFI,2007SR,046,48,2007_046u,21-Jul-2020 20:34:13,21-Jul-2020 12:34:13,31.32336,-123.74398,086.7 110.0,086.7,110.0,471.000,474.823,,5.9752,,5.9760,,5.9756,34.2335,,34.2337,34.2350,,34.2366,34.2352,0.4149,,0.4158,0.4821,2.0195,,0.8800,0.4852,0.4837,18.045,18.3491,24.9955,87.825,,27.2589,26.1272,0.0332,,,,,,,,26.9553,,26.9563,,0.6376,85.2666,,7.529,,2.0623E+03,,6.8349E-04,,5.9341,5.9349,0.9887,,5.972,29.067,,,,,,,,,,,,
CalCOFI,2007SR,046,48,2007_046u,21-Jul-2020 20:34:14,21-Jul-2020 12:34:14,31.32336,-123.74398,086.7 110.0,086.7,110.0,470.000,473.813,,5.9908,,5.9920,,5.9914,34.2326,,34.2328,34.2339,,34.2355,34.2342,0.4175,,0.4185,0.4848,2.0184,,0.8773,0.4823,0.4836,18.158,18.4670,25.1001,87.777,,27.1466,26.1234,0.0328,,,,,,,,26.9526,,26.9535,,0.6376,85.2654,,7.528,,2.0623E+03,,8.2283E-06,,5.9497,5.9509,0.9887,,6.012,29.062,,,,,,,,,,,,
CalCOFI,2007SR,046,48,2007_046u,21-Jul-2020 20:34:15,21-Jul-2020 12:34:15,31.32336,-123.74398,086.7 110.0,086.7,110.0,469.000,472.804,,5.9928,,5.9931,,5.9930,34.2319,,34.2321,34.2331,,34.2347,34.2334,0.4241,,0.4254,0.4917,2.0177,,0.8757,0.4804,0.4861,18.442,18.7635,25.3631,87.746,,27.0741,26.2186,0.0333,,,,,,,,26.9518,,26.9527,,0.6375,85.2677,,7.528,,2.0605E+03,,1.0000E-12,,5.9518,5.9521,0.9887,,6.106,29.052,,,,,,,,,,,,
CalCOFI,2007SR,046,48,2007_046u,21-Jul-2020 20:34:16,21-Jul-2020 12:34:16,31.32336,-123.74398,086.7 110.0,086.7,110.0,468.000,471.795,,5.9969,,5.9973,,5.9971,34.2317,,34.2319,34.2331,,34.2347,34.2333,0.4277,,0.4292,0.4954,2.0156,,0.8706,0.4748,0.4851,18.598,18.9264,25.5076,87.656,,26.8634,26.1855,0.0333,,,,,,,,26.9511,,26.9521,,0.6375,85.2677,,7.528,,2.0587E+03,,1.0000E-12,,5.9560,5.9564,0.9887,,6.158,29.025,,,,,,,,,,,,
CalCOFI,2007SR,046,48,2007_046u,21-Jul-2020 20:34:17,21-Jul-2020 12:34:17,31.32336,-123.74398,086.7 110.0,086.7,110.0,467.000,470.786,,6.0031,,6.0040,,6.0036,34.2307,,34.2309,34.2318,,34.2334,34.2322,0.4309,,0.4325,0.4987,2.0166,,0.8730,0.4775,0.4881,18.738,19.0725,25.6372,87.699,,26.9641,26.3007,0.0325,,,,,,,,26.9495,,26.9502,,0.6375,85.2677,,7.528,,2.0603E+03,,9.7659E-08,,5.9623,5.9632,0.9887,,6.205,29.044,,,,,,,,,,,,
CalCOFI,2007SR,046,48,2007_046u,21-Jul-2020 20:34:18,21-Jul-2020 12:34:18,31.32336,-123.74398,086.7 110.0,086.7,110.0,466.000,469.776,,6.0029,,6.0030,,6.0030,34.2275,,34.2277,34.2285,,34.2301,34.2289,0.4336,,0.4354,0.5015,2.0166,,0.8730,0.4775,0.4895,18.857,19.1967,25.7474,87.697,,26.9594,26.3534,0.0330,,,,,,,,26.9470,,26.9478,,0.6375,85.2677,,7.528,,2.0641E+03,,1.6596E-09,,5.9622,5.9623,0.9887,,6.244,29.042,,,,,,,,,,,,
CalCOFI,2007SR,046,48,2007_046u,21-Jul-2020 20:34:19,21-Jul-2020 12:34:19,31.32336,-123.74398,086.7 110.0,086.7,110.0,465.000,468.767,,6.0003,,6.0004,,6.0004,34.2259,,34.2261,34.2270,,34.2286,34.2274,0.4343,,0.4361,0.5023,2.0129,,0.8642,0.4676,0.4850,18.886,19.2270,25.7742,87.535,,26.5803,26.1773,0.0332,,,,,,,,26.9461,,26.9469,,0.6375,85.2677,,7.528,,2.0710E+03,,1.0000E-12,,5.9596,5.9597,0.9887,,6.254,28.986,,,,,,,,,,,,
CalCOFI,2007SR,046,48,2007_046u,21-Jul-2020 20:34:20,21-Jul-2020 12:34:20,31.32336,-123.74398,086.7 110.0,086.7,110.0,464.000,467.758,,5.9996,,5.9998,,5.9997,34.2251,,34.2253,34.2263,,34.2279,34.2266,0.4388,,0.4408,0.5069,2.0186,,0.8778,0.4828,0.4949,19.081,19.4306,25.9548,87.785,,27.1653,26.5601,0.0327,,,,,,,,26.9455,,26.9464,,0.6375,85.2677,,7.528,,2.0789E+03,,1.0000E-12,,5.9591,5.9592,0.9887,,6.318,29.068,,,,,,,,,,,,
CalCOFI,2007SR,046,48,2007_046u,21-Jul-2020 20:34:21,21-Jul-2020 12:34:21,31.32336,-123.74398,086.7 110.0,086.7,110.0,463.000,466.749,,6.0002,,6.0002,,6.0002,34.2241,,34.2243,34.2255,,34.2271,34.2257,0.4485,,0.4509,0.5170,2.0156,,0.8706,0.4748,0.4959,19.505,19.8732,26.3474,87.654,,26.8588,26.6031,0.0324,,,,,,,,26.9446,,26.9457,,0.6375,85.2677,,7.528,,2.0767E+03,,1.0000E-12,,5.9597,5.9597,0.9887,,6.459,29.025,,,,,,,,,,,,
CalCOFI,2007SR,046,48,2007_046u,21-Jul-2020 20:34:22,21-Jul-2020 12:34:22,31.32336,-123.74398,086.7 110.0,086.7,110.0,462.000,465.739,,6.0028,,6.0027,,6.0028,34.2222,,34.2224,34.2234,,34.2250,34.2237,0.4583,,0.4612,0.5272,2.0073,,0.8508,0.4527,0.4900,19.929,20.3158,26.7400,87.293,,26.0140,26.3770,0.0330,,,,,,,,26.9428,,26.9438,,0.6375,85.2677,,7.528,,2.0723E+03,,3.5610E-05,,5.9624,5.9624,0.9887,,6.599,28.907,,,,,,,,,,,,